Location: *
(37.9500°N, 27.3666°E)
Time: 13:42:00
(UTC+00:00)

OAO 3 Rocket - Pass Details

Date: 24 October 2021
Orbit: 628 x 682 km, 35.0° (Epoch: 02 December)

Event Time Altitude Azimuth Distance (km) Brightness Sun altitude
Rises 16:00:16 0° 226° (SW) 2,938 7.5 -8.4°
Reaches altitude 10° 16:02:52 10° 214° (SW) 2,040 6.4 -8.9°
Maximum altitude 16:06:53 27° 156° (SSE) 1,239 4.5 -9.7°
Enters shadow 16:10:30 12° 102° (ESE) 1,924 5.0 -10.4°
